Weather in Shaposhnikovo

Russia / Orenburg Oblast     51°41′36″N   51°17′34″E
temp.,
°C
wind,
m/s
gust,
m/s
humid.,
%
clouds,
%
prec.,
mm/h
press.,
hPa
HPBL,
m
28 february, sun
sun2823:000wsw5997100 0.2 1000473
02:000wsw5998100 0.6 1000417
05:00−5nw7994100 1.9 1001253
08:00−14nw6119290 0.0 1003395
11:00−15nw7119195 0.3 1005418
14:00−14nw6109199 0.0 1007429
17:00−13nw6109099 0.1 1009492
20:00−16wnw4994100 0.0 1012196
1 march, mon
mon123:00−18nw479585 0.0 1014115
02:00−18wnw479581 0.0 1015117
05:00−18nw359684 0.0 101787
08:00−16nw489599 0.1 1018211
11:00−16nw479384 0.1 1020260
14:00−16nw469127 0.0 1022276
17:00−15nw479222 0.0 1022308
20:00−20wnw34963 0.0 102338
2 march, tue
tue223:00−21wnw34972 0.0 102426
02:00−20w34980 0.0 102337
05:00−19sw359927 0.0 102270
08:00−17ssw499695 0.0 1019201
11:00−12sw7119497 0.0 1016342
14:00−7sw81493100 0.1 1013575
17:00−3sw91493100 0.6 1010779
20:00−3sw81495100 0.5 1007658
3 march, wed
wed323:00−2wsw71495100 1.1 1006556
02:00−1sw61097100 0.8 1004419
05:000wsw4798100 1.6 1004309
08:00−2nw2397100 0.4 100453
11:00−4nw3593100 0.4 1005172
14:00−3nw359382 0.0 1005261
17:00−4nw359554 0.0 1006190
20:00−8nw449539 0.0 100778
4 march, thu
thu423:00−6nw479438 0.0 1009113
02:00−10nw47945 0.0 1010103
05:00−12nw44924 0.0 101267
08:00−13wnw46940 0.0 101389
11:00−10w59930 0.0 1014244
14:00−6wsw610890 0.0 1013402
17:00−5sw7138422 0.0 1012517
20:00−4sw91690100 0.0 1010807